Retour au catalogue

GALAXY 4R

ActifCommunicationsGEO
NORAD 26298·PAYLOAD·🇺🇸 United States

Lancé Apr 19, 2000 depuis Guiana Space Centre

Loading…

TLE

FraisSource: Space-Track

Époque: Sep 14, 2026, 13:46 UTC

1 26298U 00020A   26257.57423434 -.00000140  00000-0  00000-0 0  9999
2 26298  12.8590  23.3618 0007459 207.5242 324.5262  0.99843269 96519

Suivez GALAXY 4R en temps réel avec AllMySat

Download on the App Store